sat.trackr.live / text

‹ back to catalog

QIANFAN-127

NORAD 69073 · 2026-104A

PAYLOAD ACTIVE UNKNOWN

§ Identity

Operator
Country
PRC
Launch date
2026-05-12
Launch site
TAISC
Launch vehicle
Mass (kg)
RCS (m²)

External: N2YO · Heavens-Above · Gunter

§ Orbital elements

Epoch: 2026-09-20T03:53:22.416000Z

Period
106.59 min
Inclination
88.9922°
Eccentricity
0.0002544
Mean motion
13.51028181 rev/d
Perigee alt
1,066.6 km
Apogee alt
1,070.4 km
Semi-major
7,446.6 km
B*
7.6847e-5
RAAN
331.7886°
Arg perigee
102.4142°
Mean anomaly
257.7294°
Rev number
1,798

§ Raw data

QIANFAN-1271 69073U 26104A   26263.16206500  .00000062  00000+0  76847-4 0  99902 69073  88.9922 331.7886 0002544 102.4142 257.7294 13.51028181 17981

JSON: /api/v1/satellites/69073 · /tle

For live sub-satellite position, see the globe view (requires WebGL).

§ Visibility from observer

Set your observer location to see the next 7 days of passes ≥ 10°. The values pass through the URL so the page stays shareable.

No JS? Fill the form by hand. The geolocation button needs JavaScript.